Location: Campestrin
(46.4667°N, 11.7167°E)
Time: 10:02:20
(UTC+00:00)

COSMOS 2428 - Pass Details

Date: 18 April 2021
Orbit: 844 x 859 km, 70.9° (Epoch: 06 May)

Event Time Altitude Azimuth Distance (km) Brightness Sun altitude
Rises 18:54:10 0° 335° (NNW) 3,442 6.8 -8.7°
Reaches altitude 10° 18:56:40 10° 338° (NNW) 2,503 5.9 -9.1°
Maximum altitude 19:02:22 64° 60° (ENE) 953 2.9 -9.9°
Enters shadow 19:07:47 11° 141° (SE) 2,385 4.5 -10.7°
